Location: Marion Hill
(40.7303°N, 80.2959°W)
Time: 22:18:30
(UTC+00:00)

CZ-4B R/B - Pass Details

Date: 29 October 2020
Orbit: 388 x 461 km, 97.6° (Epoch: 28 November)

Event Time Altitude Azimuth Distance (km) Brightness Sun altitude
Rises 23:20:50 0° 4° (N) 2,374 4.9 -12.0°
Reaches altitude 10° 23:22:56 10° 356° (N) 1,491 4.0 -12.4°
Maximum altitude 23:25:54 38° 287° (WNW) 642 2.8 -12.9°
Drops below altitude 10° 23:28:48 10° 217° (SW) 1,446 4.6 -13.5°
Sets 23:30:48 0° 209° (SSW) 2,289 5.5 -13.8°
